N6OIM Weather Reports


Display with metric or nautical units.
time (UTC)temp
F
wind
direction
speed
MPH
gust
MPH
rain 1hr
in
rain 24hr
in
rain mn
in
humidity
%
barometer
mb
20180816190410 82 252 2.0 4.0 0.00 0.00 0.00 43 1015.2
20180816183406 81 173 2.0 5.0 0.00 0.00 0.00 46 1015.3
20180816180414 78 69 1.0 3.0 0.00 0.00 0.00 50 1015.3
20180816173440 76 232 3.0 4.0 0.00 0.00 0.00 53 1015.4
20180816170421 74 122 2.0 5.0 0.00 0.00 0.00 56 1015.1
20180816160343 68 169 2.0 4.0 0.00 0.00 0.00 69 1015.3
20180816153418 66 144 1.0 5.0 0.00 0.00 0.00 73 1015.2
20180816150351 64 115 3.0 4.0 0.00 0.00 0.00 77 1014.5
20180816143415 62 165 2.0 4.0 0.00 0.00 0.00 80 1014.5
20180816140424 61 196 2.0 5.0 0.00 0.00 0.00 80 1014.3
20180816130344 61 136 1.0 3.0 0.00 0.00 0.00 78 1013.3
20180816123346 62 185 2.0 4.0 0.00 0.00 0.00 77 1013.1
20180816120328 62 191 2.0 2.0 0.00 0.00 0.00 76 1013.1
20180816113404 63 116 2.0 3.0 0.00 0.00 0.00 76 1013.0
20180816110405 63 118 2.0 4.0 0.00 0.00 0.00 72 1012.9
20180816103340 64 222 2.0 5.0 0.00 0.00 0.00 72 1012.8
20180816100419 64 105 1.0 2.0 0.00 0.00 0.00 72 1012.5
20180816093420 64 140 0.0 2.0 0.00 0.00 0.00 72 1012.3
20180816083350 66 109 2.0 4.0 0.00 0.00 0.00 67 1012.2
20180816080339 66 111 2.0 5.0 0.00 0.00 0.00 66 1012.2
20180816073345 67 110 3.0 6.0 0.00 0.00 0.00 66 1012.0
20180816070334 67 156 1.0 3.0 0.00 0.00 0.00 65 1011.9
20180816063401 68 119 1.0 2.0 0.00 0.00 0.00 63 1011.8
20180816060445 69 121 2.0 2.0 0.00 0.00 0.00 61 1011.7
20180816053407 70 126 3.0 4.0 0.00 0.00 0.00 60 1011.7
20180816050409 71 105 1.0 5.0 0.00 0.00 0.00 58 1011.6
20180816043419 72 116 2.0 3.0 0.00 0.00 0.00 55 1011.2
20180816033337 77 114 2.0 4.0 0.00 0.00 0.00 46 1010.5
20180816030413 80 192 3.0 5.0 0.00 0.00 0.00 41 1010.3
20180816023415 83 155 1.0 5.0 0.00 0.00 0.00 39 1010.1
20180816020423 85 182 1.0 5.0 0.00 0.00 0.00 35 1009.8
20180816010354 90 187 5.0 7.0 0.00 0.00 0.00 30 1009.8
20180816003356 91 185 3.0 4.0 0.00 0.00 0.00 30 1009.8
20180816000351 90 254 2.0 5.0 0.00 0.00 0.00 32 1009.8
20180815230354 90 159 4.0 5.0 0.00 0.00 0.00 33 1010.4
20180815223347 89 267 1.0 7.0 0.00 0.00 0.00 34 1010.7
20180815220401 88 320 2.0 3.0 0.00 0.00 0.00 36 1010.9
20180815210407 86 272 3.0 5.0 0.00 0.00 0.00 36 1011.4
20180815203339 84 200 3.0 5.0 0.00 0.00 0.00 40 1011.6
20180815200359 83 304 1.0 5.0 0.00 0.00 0.00 43 1011.8